Home   Weather   Onex   Past weeks

Flag for Switzerland Past Weather in Onex, Geneva, Switzerland — Yesterday and Last 2 Weeks

Now
68 °F

Scattered clouds.


Feels Like: 68 °F
Forecast: 57 / 67 °F
Wind: 8 mph from Northwest

Location: Geneva Cointrin Airport

Current Time: Jul 24, 2017 at 2:56:39 pm

Latest Report: Jul 24, 2017 at 2:20 pm


Visibility: N/A

Pressure: 29.95 "Hg

Humidity: 46%

Dew Point: 46 °F

Location of OnexLocation

Past Weather in Onex — Graph

°F

Onex Temperature Yesterday

Maximum temperature yesterday: 79 °F (at 3:50 pm)
Minimum temperature yesterday: 63 °F (at 12:20 am)
Average temperature yesterday: 70 °F

High & Low Weather Summary for the Past Weeks

 TemperatureHumidityPressure
High90 °F (Jul 18, 3:20 pm)100% (Jul 22, 1:50 am)30.27 "Hg (Jul 22, 1:50 am)
Low55 °F (Jul 15, 5:20 am)27% (Jul 18, 3:20 pm)29.89 "Hg (Jul 9, 5:20 pm)
Average71 °F59%30.05 "Hg
* Reported Jul 9 1:20 pm — Jul 24 1:20 pm, Onex. Weather by CustomWeather, © 2017

Note: Actual official high and low records may vary slightly from our data, if they occured in-between our weather recording intervals... More about our weather records

Advertising

Onex Weather History for the Previous 24 Hours

Scroll right to see more
 ConditionsComfort  
Time TempWeatherWind HumidityBarometerVisibility
1:20 pm
Mon, Jul 24
70 °FPartly sunny.9 mph53%29.95 "HgN/A
12:50 pm68 °FPartly sunny.10 mph56%29.92 "HgN/A
11:50 am63 °FLight rain. Partly sunny.5 mph77%29.92 "HgN/A
11:20 am63 °FLight rain. Partly sunny.8 mph83%29.92 "Hg5 mi
10:50 am64 °FPartly sunny.17 mph73%29.92 "HgN/A
10:20 am64 °FPartly sunny.15 mph73%29.92 "HgN/A
9:50 am63 °FPartly sunny.15 mph83%29.92 "HgN/A
9:20 am63 °FSprinkles. Partly sunny.12 mph83%29.92 "Hg6 mi
8:50 am63 °FSprinkles. Partly sunny.10 mph77%29.92 "Hg6 mi
8:20 am64 °FRain showers. Broken clouds.15 mph73%29.92 "HgN/A
7:50 am63 °FBroken clouds.9 mph77%29.92 "HgN/A
7:20 am63 °FSprinkles. Broken clouds.9 mph77%29.92 "HgN/A
6:50 am63 °FSprinkles. Partly sunny.13 mph77%29.92 "HgN/A
6:20 am63 °FSprinkles. Partly sunny.10 mph77%29.95 "HgN/A
5:50 am64 °FSprinkles. Passing clouds.12 mph68%29.92 "HgN/A
5:20 am64 °FPassing clouds.12 mph68%29.92 "HgN/A
4:50 am64 °FPassing clouds.9 mph64%29.95 "HgN/A
4:20 am64 °FPartly cloudy.13 mph64%29.95 "HgN/A
3:50 am64 °FPartly cloudy.12 mph64%29.95 "HgN/A
2:50 am66 °FLight rain. Passing clouds.3 mph64%29.95 "HgN/A
2:20 am66 °FPartly cloudy.1 mph64%29.98 "HgN/A
1:50 am66 °FPassing clouds.2 mph60%29.98 "HgN/A
1:20 am66 °FPassing clouds.3 mph60%29.98 "HgN/A
12:50 am66 °FClear.3 mph64%29.98 "Hg10 mi
12:20 am66 °FPassing clouds.3 mph64%29.98 "HgN/A
11:50 pm
Sun, Jul 23
68 °FPassing clouds.3 mph56%30.01 "HgN/A
11:20 pm68 °FClear.2 mph56%30.01 "Hg10 mi
10:50 pm68 °FClear.1 mph56%30.01 "Hg10 mi
10:20 pm70 °FPassing clouds.8 mph50%30.01 "HgN/A
9:50 pm72 °FPassing clouds.6 mph50%30.01 "HgN/A
9:20 pm72 °FPassing clouds.7 mph50%30.01 "HgN/A
8:50 pm72 °FScattered clouds.6 mph50%30.01 "HgN/A
8:20 pm73 °FScattered clouds.3 mph47%30.01 "HgN/A
7:50 pm73 °FScattered clouds.6 mph44%30.01 "HgN/A
7:20 pm73 °FClear.10 mph44%30.04 "HgN/A
6:50 pm77 °FPassing clouds.13 mph39%30.04 "HgN/A
6:20 pm77 °FPassing clouds.9 mph36%30.04 "HgN/A
5:20 pm79 °FScattered clouds.13 mph32%30.04 "HgN/A
4:50 pm79 °FScattered clouds.9 mph34%30.04 "HgN/A
3:50 pm79 °FPassing clouds.17 mph37%30.07 "HgN/A
3:20 pm77 °FPassing clouds.16 mph39%30.07 "HgN/A
2:50 pm77 °FPassing clouds.14 mph44%30.09 "HgN/A
2:20 pm75 °FPassing clouds.15 mph44%30.09 "HgN/A
Weather by CustomWeather, © 2017

See weather overviewHow to use our weather pages